[[{"header":{"parameterUnit":"m.s-1","parameterCategory":1,"la1":30.2992,"la2":30.254,"lo1":-89.0895,"lo2":-89.0443,"dy":0.0025,"dx":0.0025,"nx":19,"ny":19,"refTime":"2026-04-26T09:00:00:Z","depth":0,"parameterNumber":2,"parameterNumberName":"U-component_of_WINDS"},"data":[0,0,0,-3.5053,-3.5055,-3.5117,-3.5117,-3.5205,-3.5205,0,0,0,0,0,0,0,0,0,0,0,-3.5039,-3.504,-3.5053,-3.5055,-3.5117,-3.5117,-3.5204,-3.5205,0,0,0,0,0,0,0,0,0,0,0,-3.5039,-3.504,-3.5041,-3.5055,-3.5117,-3.5117,-3.5204,-3.5154,0,0,0,0,0,0,0,0,0,0,-3.5092,-3.5084,-3.5039,-3.5041,-3.5055,-3.5117,-3.5117,-3.5152,-3.5157,-3.518,0,-3.5201,0,-3.5205,-3.5212,-3.5212,0,0,0,-3.5051,-3.5079,-3.5092,-3.5041,-3.5056,-3.5117,-3.5088,-3.5155,-3.5161,-3.5187,-3.5202,-3.5205,-3.5206,-3.5212,-3.5213,-3.5355,-3.5356,0,0,-3.5047,-3.5052,-3.5088,-3.5097,-3.5088,-3.5086,-3.509,-3.5159,-3.5175,-3.5202,-3.5207,-3.5208,-3.5213,-3.5214,-3.5354,-3.5355,0,0,0,-3.504,-3.505,-3.5061,-3.5093,-3.5104,-3.5088,-3.5092,-3.5171,-3.5175,-3.5208,-3.5209,-3.5214,-3.5215,-3.5353,-3.5354,-3.54,0,0,0,-3.5038,-3.5046,-3.506,-3.5064,-3.5103,-3.5138,-3.5104,-3.517,-3.5178,-3.5208,-3.5214,-3.5216,-3.5352,-3.5354,-3.5397,-3.542,0,0,0,-3.5033,-3.5045,-3.5056,-3.5064,-3.5091,-3.5137,-3.5144,-3.5172,-3.5179,-3.5212,-3.5216,-3.5351,-3.5353,-3.5394,-3.5415,-3.5459,0,0,0,-3.503,-3.5095,-3.5057,-3.513,-3.509,-3.5166,-3.5144,-3.52,-3.5234,-3.5214,-3.5352,-3.5354,-3.5393,-3.5412,-3.5456,-3.5495,-3.5512,0,0,-3.5114,-3.5105,-3.5148,-3.5116,-3.5199,-3.5156,-3.5246,-3.5273,-3.5271,-3.5327,-3.533,-3.5398,-3.5415,-3.5458,-3.5611,-3.5624,0,0,0,-3.5176,-3.5207,-3.5228,-3.5262,-3.5285,-3.5307,-3.5319,-3.533,-3.5377,-3.5301,-3.5426,-3.5436,-3.5461,-3.548,-3.5491,-3.5512,-3.5363,-3.5363,-3.5363,-3.53,-3.5297,-3.5368,-3.5373,-3.5406,-3.542,-3.5447,-3.5463,-3.5448,-3.5478,-3.5494,-3.5587,-3.5609,-3.5618,-3.564,-3.5516,-3.5516,-3.5516,-3.5517,-3.5422,-3.5465,-3.5448,-3.551,-3.5506,-3.5558,-3.5576,-3.5564,-3.5612,-3.5574,-3.5596,-3.5553,-3.5633,-3.5652,-3.552,-3.5519,-3.5519,-3.5519,-3.5518,-3.5502,-3.5522,-3.5535,-3.5586,-3.5625,-3.5629,-3.5677,-3.5672,-3.5667,-3.5689,-3.5705,-3.5705,-3.5702,-3.5698,-3.5698,-3.5699,-3.5699,-3.5699,-3.5699,-3.5578,-3.5591,-3.5633,-3.5666,-3.5688,-3.5717,-3.5735,-3.5757,-3.578,-3.5773,-3.5773,-3.5755,-3.5642,-3.5613,-3.5704,-3.5703,-3.5703,-3.5702,-3.5702,-3.57,-3.5672,-3.5736,-3.5759,-3.5798,-3.5839,-3.5834,-3.588,-3.5897,-3.5921,-3.5901,-3.5819,-3.5808,-3.5799,-3.5774,-3.5902,-3.5902,-3.5902,-3.5902,-3.5765,-3.5761,-3.5826,-3.5863,-3.59,-3.5903,-3.5975,-3.5991,-3.6003,-3.6014,-3.5996,-3.5964,-3.5955,-3.5949,-3.5937,-3.5914,-3.6074,-3.6074,-3.6074,-3.584,-3.584,-3.5902,-3.5914,-3.5946,-3.5973,-3.6042,-3.6086,-3.6093,-3.6081,-3.6022,-3.6015,-3.5964,-3.5948,-3.593,-3.5911,-3.5869,0,0]},{"header":{"parameterUnit":"m.s-1","parameterCategory":1,"la1":30.2992,"la2":30.254,"lo1":-89.0895,"lo2":-89.0443,"dy":0.0025,"dx":0.0025,"nx":19,"ny":19,"refTime":"2026-04-26T09:00:00:Z","depth":0,"parameterNumber":3,"parameterNumberName":"V-component_of_WINDS"},"data":[0,0,0,3.239,3.239,3.2422,3.2422,3.2449,3.2449,0,0,0,0,0,0,0,0,0,0,0,3.2374,3.2374,3.239,3.239,3.2422,3.2422,3.2449,3.2449,0,0,0,0,0,0,0,0,0,0,0,3.2374,3.2374,3.2374,3.239,3.2422,3.2422,3.2449,3.243,0,0,0,0,0,0,0,0,0,0,3.2401,3.2381,3.2374,3.2374,3.2391,3.2422,3.2422,3.2429,3.2431,3.243,0,3.2429,0,3.244,3.2451,3.2451,0,0,0,3.2394,3.2379,3.2394,3.2374,3.2391,3.2422,3.2409,3.243,3.2432,3.2433,3.243,3.2431,3.244,3.2451,3.2451,3.244,3.244,0,0,3.2392,3.2376,3.2392,3.2395,3.2391,3.2408,3.241,3.2432,3.2426,3.243,3.2432,3.2441,3.2451,3.2451,3.244,3.244,0,0,0,3.2385,3.2374,3.2389,3.2394,3.24,3.2408,3.2411,3.2426,3.2432,3.2432,3.2441,3.2451,3.2451,3.244,3.244,3.2414,0,0,0,3.2384,3.237,3.2388,3.2378,3.24,3.2414,3.2404,3.243,3.2433,3.2441,3.2451,3.2451,3.2441,3.244,3.2415,3.2403,0,0,0,3.2374,3.2369,3.2372,3.2377,3.239,3.2414,3.2421,3.2431,3.2438,3.2451,3.2451,3.2441,3.244,3.2416,3.2405,3.2397,0,0,0,3.2358,3.2345,3.2371,3.236,3.239,3.2398,3.2421,3.2428,3.2435,3.2451,3.2441,3.244,3.2417,3.2407,3.2398,3.2387,3.2381,0,0,3.2332,3.2341,3.2337,3.2361,3.2361,3.2394,3.239,3.2411,3.2426,3.2434,3.2434,3.2415,3.2405,3.2397,3.2352,3.2347,0,0,0,3.2323,3.2319,3.2323,3.2331,3.2349,3.2363,3.2387,3.2396,3.2404,3.2427,3.241,3.2405,3.24,3.2396,3.2392,3.2389,3.2437,3.2437,3.2437,3.2261,3.2285,3.2279,3.2306,3.2313,3.234,3.2348,3.2364,3.2382,3.2377,3.238,3.235,3.2344,3.2341,3.2338,3.2376,3.2375,3.2375,3.2375,3.2226,3.2225,3.2254,3.2259,3.2283,3.2286,3.2312,3.2326,3.2332,3.2349,3.2347,3.2363,3.2335,3.2334,3.2374,3.2374,3.2374,3.2374,3.2374,3.2188,3.2192,3.2205,3.2221,3.2231,3.2258,3.2264,3.2285,3.2305,3.2302,3.2308,3.2308,3.2312,3.2303,3.2303,3.2303,3.2303,3.2303,3.2303,3.2144,3.216,3.2163,3.2184,3.2194,3.2209,3.2237,3.2246,3.2262,3.2276,3.2277,3.2296,3.2328,3.2336,3.2302,3.2302,3.2302,3.2302,3.2302,3.21,3.2115,3.212,3.213,3.2157,3.2166,3.2194,3.2212,3.2222,3.2225,3.2246,3.2266,3.2276,3.2279,3.2286,3.2241,3.2241,3.2241,3.2241,3.2068,3.2077,3.2089,3.2104,3.2121,3.2148,3.2153,3.2176,3.2201,3.2209,3.2219,3.2229,3.2232,3.224,3.2245,3.2251,3.2198,3.2198,3.2198,3.2043,3.2055,3.2056,3.2084,3.2108,3.2127,3.2133,3.2148,3.2179,3.2197,3.2216,3.2218,3.2235,3.224,3.2256,3.2262,3.2275,0,0]}]]